Weather observations for the past three days for
New York City, Central Park
Metric (Imperial)
Date Time (edt) Wind (kph) Vis. (km) Weather Sky Cond. Temperature (ºC) Relative Humidity Wind Chill (°C) Heat Index (°C) Pressure Precipitation (cm)
Air Dwpt 6 hour altimeter (cm) sea level (mb) 1 hr 3 hr 6 hr
Max. Min.
21 13:51 Calm 16.09 Fair CLR 33.9 20 34.4 26.1 44% 36 76.53 1019.4
21 12:51 Vrbl 6 16.09 Fair CLR 33.9 20 44% 36 76.63 1020.5
21 11:51 Vrbl 9 16.09 Fair CLR 32.2 20.6 50% 35 76.66 1021.1
21 10:51 Vrbl 7 16.09 Fair CLR 30 20 55% 32 76.68 1021.3
21 09:51 Vrbl 6 16.09 Fair CLR 28.3 18.9 57% 30 76.71 1021.7
21 08:51 Calm 16.09 Fair CLR 26.7 18.3 60% 28 76.73 1021.9
21 07:51 Calm 16.09 Fair CLR 26.1 17.8 27.2 25 60% 27 76.76 1022.2
21 06:51 Vrbl 6 16.09 Fair CLR 25 17.8 64% 26 76.76 1022.2
21 05:51 Calm 16.09 Fair CLR 25 17.8 64% 26 76.73 1022.1
21 04:51 Vrbl 11 16.09 Fair CLR 25 17.8 64% 26 76.76 1022.2
21 03:51 Vrbl 9 16.09 Fair CLR 25.6 17.8 62% 27 76.73 1022.1
21 02:51 Vrbl 6 16.09 Fair CLR 26.1 17.8 60% 27 76.76 1022.2
21 01:51 Vrbl 9 16.09 Fair CLR 26.7 17.8 28.3 26.1 58% 28 76.78 1022.5
21 00:51 W 13 16.09 Fair CLR 27.8 17.8 55% 29 76.78 1022.6
20 23:51 SW 11 16.09 Fair CLR 27.8 18.3 56% 29 76.81 1023.0
20 22:51 Calm 16.09 Fair CLR 26.7 18.9 62% 28 76.84 1023.3
20 21:51 Calm 16.09 Fair CLR 27.2 18.9 61% 28 76.84 1023.2
20 20:51 Calm 16.09 Fair CLR 27.8 18.3 56% 29 76.78 1022.6
20 19:51 Calm 16.09 Fair CLR 28.9 18.3 32.2 28.3 53% 30 76.76 1022.5
20 17:51 Calm 16.09 Fair CLR 30 18.9 51% 31 76.81 1022.9
20 16:51 Vrbl 7 16.09 Fair CLR 30.6 18.9 50% 32 76.84 1023.3
20 15:51 Vrbl 7 16.09 Fair CLR 31.1 18.9 48% 32 76.86 1023.8
20 14:51 Vrbl 6 16.09 Fair CLR 31.1 18.3 46% 32 76.94 1024.5
20 13:51 Calm 16.09 Fair CLR 32.2 17.8 32.8 23.3 42% 33 76.96 1024.9
20 12:51 Calm 16.09 Fair CLR 31.1 18.9 48% 32 77.01 1025.7
20 11:51 Calm 16.09 Fair CLR 31.1 18.3 46% 32 77.04 1026.1
20 10:51 Vrbl 7 16.09 Fair CLR 27.8 18.9 58% 29 77.06 1026.3
20 09:51 Calm 16.09 Fair CLR 27.2 18.3 58% 28 77.06 1026.4
20 08:51 Vrbl 6 16.09 Fair CLR 25.6 17.8 62% 27 77.06 1026.5
20 07:51 Vrbl 7 16.09 Fair CLR 23.3 17.2 23.9 22.2 69% 77.06 1026.5
20 06:51 Vrbl 7 16.09 Fair CLR 22.8 16.7 69% 77.06 1026.2
20 05:51 SW 9 16.09 Fair CLR 22.8 16.7 69% 77.06 1026.2
20 04:51 Calm 16.09 Fair CLR 22.8 16.1 66% 77.01 1025.9
20 03:51 Vrbl 7 16.09 Fair CLR 22.8 16.1 66% 77.01 1025.8
20 02:51 SW 9 16.09 Fair CLR 23.3 16.7 67% 77.04 1026.1
20 01:51 Vrbl 6 16.09 Fair CLR 23.9 16.7 26.1 23.3 64% 25 77.04 1026.2
20 00:51 Vrbl 6 16.09 Fair CLR 23.9 16.1 62% 25 77.06 1026.4
19 23:51 Vrbl 11 16.09 Fair CLR 24.4 16.7 62% 25 77.09 1026.6
19 22:51 Calm 16.09 Fair CLR 25 16.7 60% 26 77.09 1026.8
19 21:51 Calm 16.09 Fair CLR 24.4 16.7 62% 25 77.09 1026.7
19 20:51 Calm 16.09 Fair CLR 25 13.9 50% 26 77.04 1026.0
19 19:51 Vrbl 6 16.09 Fair CLR 26.1 11.1 30.6 26.1 39% 26 77.06 1026.3
19 18:51 SE 7 16.09 Fair CLR 26.7 14.4 47% 27 77.04 1026.2
19 17:51 Vrbl 6 16.09 Fair CLR 27.8 17.2 53% 28 77.01 1025.8
19 16:51 Calm 16.09 Fair CLR 28.3 18.3 55% 29 77.04 1026.2
19 15:51 S 7 16.09 Fair CLR 28.9 20.6 61% 31 77.06 1026.4
19 14:51 Calm 16.09 Fair CLR 29.4 21.7 63% 32 77.06 1026.5
19 13:51 S 7 16.09 Fair CLR 30.6 22.8 31.7 23.9 63% 35 77.06 1026.4
19 12:51 Vrbl 7 16.09 Fair CLR 30 22.2 63% 33 77.09 1026.8
19 11:51 Vrbl 6 16.09 Fair CLR 28.9 21.7 65% 32 77.14 1027.3
19 10:51 Calm 16.09 Fair CLR 26.7 21.1 71% 28 77.14 1027.5
19 09:51 Calm 16.09 Fair CLR 25 20.6 77% 26 77.17 1027.7
19 08:51 Vrbl 6 16.09 Fair CLR 24.4 20 77% 25 77.19 1027.9
19 07:51 Vrbl 6 16.09 A Few Clouds FEW050 23.9 19.4 23.9 22.2 76% 24 77.17 1027.7
19 06:51 Calm 16.09 Fair CLR 23.3 18.9 76% 77.11 1027.1
19 05:51 Calm 16.09 A Few Clouds FEW048 22.8 17.8 74% 77.09 1026.8
19 04:51 SW 6 16.09 Overcast OVC049 22.2 18.3 79% 77.06 1026.4
19 03:51 W 6 16.09 Fair CLR 22.8 17.8 74% 77.04 1026.0
19 02:51 Calm 16.09 Fair CLR 22.8 13.9 57% 76.99 1025.5
19 01:51 Calm 16.09 Fair CLR 23.9 13.3 26.7 23.9 52% 25 76.99 1025.3
19 00:51 Calm 16.09 Fair CLR 24.4 13.9 52% 26 76.99 1025.4
18 23:51 Calm 16.09 Fair CLR 25 16.1 58% 26 76.99 1025.3
18 22:51 Calm 16.09 Fair CLR 25.6 17.8 62% 27 76.96 1025.1
18 21:51 S 6 16.09 Fair CLR 25.6 18.3 64% 27 76.94 1024.5
18 20:51 S 7 16.09 Fair CLR 25.6 18.3 64% 27 76.86 1023.7
18 19:51 Vrbl 9 16.09 Fair CLR 26.7 17.8 30 26.7 58% 28 76.84 1023.4
18 18:51 Calm 16.09 Fair CLR 27.2 18.9 61% 28 76.81 1022.9
18 17:51 Calm 16.09 Fair CLR 28.3 20.6 63% 30 76.81 1022.8
18 16:51 Vrbl 6 16.09 Fair CLR 28.3 21.1 65% 31 76.81 1023.1
18 15:51 Vrbl 9 16.09 Fair CLR 28.9 21.7 65% 32 76.84 1023.2
18 14:51 Vrbl 7 16.09 Fair CLR 28.9 21.1 63% 31 76.86 1023.5
Date Time (edt) Wind (kph) Vis. (km) Weather Sky Cond. Air Dwpt Max. Min. Relative Humidity Wind Chill (°C) Heat Index (°C) altimeter (cm) sea level (mb) 1 hr 3 hr 6 hr
6 hour
Temperature (ºC) Pressure Precipitation (cm)